Location: Sweet Grass
(48.9965°N, 111.9649°W)
Time: 07:03:47
(UTC+00:00)

DIWATA 2B (PO-101) - Pass Details

Date: 06 April 2023
Orbit: 581 x 594 km, 98.0° (Epoch: 03 June)

Event Time Altitude Azimuth Distance (km) Brightness Sun altitude
Exits shadow 10:27:24 25° 311° (NW) 1,199 ? -22.5°
Drops below altitude 10° 10:29:28 10° 331° (NNW) 1,912 ? -22.2°
Sets 10:31:46 0° 340° (NNW) 2,819 ? -21.9°
